Regional Weather Roundup
Issued by NWS

Home | Current Version | Previous Version | Text Only | Print | Product List | Glossary Off
Versions: 1 2 3 4 5 6 7 8 9 10 11 12 13 14 15 16 17 18 19 20 21 22 23 24 25 26 27

000
ASUS45 KSLC 232210
RWRUT

UTAH REGIONAL WEATHER ROUNDUP
NATIONAL WEATHER SERVICE SALT LAKE CITY UT
400 PM MDT TUE MAY 23 2017

UTZ001>011-023>025-232300-

NORTHERN UTAH

CITY           SKY/WX    TMP DP  RH WIND       PRES   REMARKS
BRIGHAM CITY   SUNNY     76  35  22 S6        30.11F
DUGWAY         PTSUNNY   82  24  12 W8G16     30.10F
HILL AFB       SUNNY     75  36  24 S7        30.14F
LOGAN          SUNNY     78  41  26 VRB3      30.10F
OGDEN          SUNNY     76  38  25 W6        30.11F
SALT LAKE CITY PTSUNNY   80  40  23 N14       30.10F
TOOELE VALLEY  SUNNY     79  41  25 NE7       30.11F
WENDOVER       SUNNY     81  36  19 E9        30.09F
HEBER CITY     MOSUNNY   77  36  22 W9        30.14S
WEST JORDAN    SUNNY     80  52  37 N13G18    30.13S

$$

UTZ011>015-024>027-232300-

CENTRAL/NORTHEAST UTAH

CITY           SKY/WX    TMP DP  RH WIND       PRES   REMARKS
PROVO AIRPORT  MOSUNNY   77  39  25 VRB5      30.12F
MOAB/CANYONLAN SUNNY     75  25  15 VRB3      30.11F
DELTA          SUNNY     79  28  15 SW8       30.13S
PRICE          SUNNY     71  36  27 VRB6      30.15F
ROOSEVELT      SUNNY     72  32  23 E9G17     30.17F
VERNAL         CLOUDY    69  34  27 VRB6      30.17F

$$

UTZ013>016-019>022-027-232300-

SOUTHERN UTAH

CITY           SKY/WX    TMP DP  RH WIND       PRES   REMARKS
BRYCE CANYON   SUNNY     73  19  13 NW12G23   30.27S
CEDAR CITY     SUNNY     80  26  13 VRB7G17   30.15F
MILFORD        SUNNY     83  25  12 N8        30.12F
ST GEORGE      CLEAR     92  30  11 CALM      29.98F
HANKSVILLE     SUNNY     79  28  15 S7        30.11F
BLANDING       SUNNY     73  24  15 NW16G26   30.23S

$$

REGIONAL REPORTS     COLORADO/ARIZONA

CITY           SKY/WX    TMP DP  RH WIND       PRES   REMARKS
CRAIG, CO      MOSUNNY   61  29  29 NW5       30.22F
GRAND JUNCTION SUNNY     72  26  18 VRB5      30.13F
RIFLE, CO      SUNNY     68  14  12 CALM      30.17F
MONTROSE, CO   SUNNY     65  18  16 VRB5      30.20F
CORTEZ, CO     SUNNY     72  16  12 NW12G22   30.15F
COLORADO CITY    N/A     88  30  12 NW9G18    30.14F
PAGE, AZ       SUNNY     82  32  16 N7        30.09F
GRAND CANYON   SUNNY     78  24  13 W10G16    30.23F
KINGMAN, AZ    SUNNY     93  26   9 CALM      30.00F
FLAGSTAFF, AZ  SUNNY     75  16  10 N13       30.23F

$$

REGIONAL REPORTS    NEVADA/IDAHO/WYOMING

CITY           SKY/WX    TMP DP  RH WIND       PRES   REMARKS
LAS VEGAS, NV  MOSUNNY  100  19   5 VRB5      29.90F HX  93
ELY, NY        SUNNY     80  30  16 VRB3      30.18F
ELKO, NV       SUNNY     80  34  19 SW12      30.14F
POCATELLO, ID  MOSUNNY   77  42  28 W16       30.10F
BURLEY, ID     SUNNY     78  41  26 W6        30.07F
FORT BRIDGER,  MOCLDY    69  34  26 NW16G23   30.24F
EVANSTON, WY   MOSUNNY   66  36  32 W7        30.23F
ROCK SPRINGS,  SUNNY     64  22  20 W10       30.21F
KEMMERER, WY     N/A     64  32  29 W12G23    30.23F

$$




USA.gov is the U.S. government's official web portal to all federal, state and local government web resources and services.